Location: Heidgraben
(53.7081°N, 9.6576°E)
Time: 10:44:20
(UTC+00:00)

Cosmos 2221 - Pass Details

Date: 05 July 2020
Orbit: 592 x 616 km, 82.5° (Epoch: 06 August)

Event Time Altitude Azimuth Distance (km) Brightness Sun altitude
Rises 22:29:25 0° 339° (NNW) 2,900 8.0 -12.6°
Reaches altitude 10° 22:32:00 10° 325° (NW) 1,987 6.3 -12.7°
Maximum altitude 22:35:27 23° 274° (W) 1,320 4.4 -12.8°
Drops below altitude 10° 22:38:52 10° 222° (SW) 1,965 4.8 -12.9°
Enters shadow 22:39:20 - 218° (SW) 2,118 4.9 -13.0°
